Pittsfield, MA

11:22 PM EST on November 19, 2019 (GMT -0500)
Pittsfield Municipal

Weather History for KPSF - October, 2019

Change the Weather History Date:

Monday, October 14, 2019

  Actual Average Record
Temperature  
Mean Temperature 51 °F 48 °F  
Max Temperature 66 °F 58 °F 77 °F (1930)
Min Temperature 36 °F 38 °F 21 °F (1953)
Degree Days  
Heating Degree Days 14 17  
Month to date heating degree days 208  
Since 1 July heating degree days 500  
Cooling Degree Days 0 0  
Month to date cooling degree days 0  
Year to date cooling degree days 289  
Growing Degree Days 1 (Base 50)    
Moisture  
Dew Point 39 °F    
Average Humidity 75    
Maximum Humidity 97    
Minimum Humidity 40    
Precipitation  
Precipitation 0.00 in 0.16 in 0.89 in (2005)
Month to date precipitation 2.38  
Year to date precipitation 36.12  
Sea Level Pressure  
Sea Level Pressure 29.95 in    
Wind  
Wind Speed 2 mph ()    
Max Wind Speed 10 mph    
Max Gust Speed 20 mph    
Visibility 8.6 miles    
Events      
T = Trace of Precipitation, MM = Missing Value Source: Averaged Metar Reports

Daily Weather History Graph

Daily Weather History Graph

Search for Another Location

Airport or City:

Astronomy

Oct. 14, 2019 Rise Set
Actual Time 7:04 AM EDT 6:13 PM EDT
Civil Twilight 6:36 AM EDT 6:41 PM EDT
Nautical Twilight 6:03 AM EDT 7:13 PM EDT
Astronomical Twilight 5:31 AM EDT 7:46 PM EDT
Moon 7:01 PM EDT (10/14) 7:33 AM EDT (10/14)
Length of Visible Light 12h 05m
Length of Day
11h 08m
Waxing Gibbous, 99% of the Moon is Illuminated
Oct 14
Waxing Gibbous
Oct 21
Last Quarter
Oct 27
New
Nov 4
First Quarter
Nov 12
Full

Hourly Weather History & Observations

Time (EDT) Temp. Windchill Dew Point Humidity Pressure Visibility Wind Dir Wind Speed Gust Speed Precip Events Conditions
12:54 AM 41.0 °F - 37.9 °F 89% 30.00 in 10.0 mi Calm Calm - N/A   Mostly Cloudy
1:54 AM 39.9 °F - 37.0 °F 89% 29.97 in 9.0 mi Calm Calm - N/A   Clear
2:00 AM 39.0 °F - 37.0 °F 93% 29.99 in 1.5 mi Calm Calm - N/A   Partly Cloudy
2:11 AM 39.9 °F 37.8 °F 37.0 °F 89% 29.99 in 4.0 mi NE 3.5 mph - N/A   Clear
2:49 AM 39.2 °F - 37.4 °F 93% 29.97 in 10.0 mi Calm Calm - N/A   Partly Cloudy
2:54 AM 37.9 °F - 36.0 °F 93% 29.94 in 10.0 mi Calm Calm - N/A   Partly Cloudy
3:54 AM 37.0 °F - 35.1 °F 93% 29.94 in 7.0 mi Calm Calm - N/A   Clear
4:54 AM 37.0 °F - 35.1 °F 93% 29.94 in 10.0 mi Calm Calm - N/A   Clear
5:54 AM 37.0 °F - 34.0 °F 89% 29.95 in 10.0 mi Calm Calm - N/A   Clear
6:38 AM 36.0 °F - 33.1 °F 89% 29.96 in 1.8 mi Calm Calm - N/A   Partly Cloudy
6:54 AM 37.0 °F - 35.1 °F 93% 29.95 in 1.2 mi Calm Calm - N/A   Mostly Cloudy
6:58 AM 37.0 °F - 35.1 °F 93% 29.97 in 3.0 mi Calm Calm - N/A   Overcast
7:20 AM 37.9 °F - 37.0 °F 97% 29.97 in 10.0 mi Calm Calm - N/A   Overcast
7:30 AM 39.0 °F - 37.9 °F 96% 29.97 in 9.0 mi Calm Calm - N/A   Overcast
7:54 AM 42.1 °F - 39.0 °F 89% 29.96 in 9.0 mi Calm Calm - N/A   Overcast
8:54 AM 44.1 °F 40.8 °F 41.0 °F 89% 29.96 in 10.0 mi North 5.8 mph - N/A   Mostly Cloudy
9:05 AM 46.0 °F 44.8 °F 43.0 °F 89% 29.97 in 10.0 mi Variable 3.5 mph - N/A   Scattered Clouds
9:13 AM 48.0 °F - 43.0 °F 83% 29.97 in 10.0 mi North 5.8 mph - N/A   Partly Cloudy
9:54 AM 52.0 °F - 45.0 °F 77% 29.96 in 10.0 mi Calm Calm - N/A   Clear
10:54 AM 59.0 °F - 48.0 °F 67% 29.93 in 10.0 mi SSE 4.6 mph 16.1 mph N/A   Clear
11:54 AM 62.1 °F - 48.0 °F 60% 29.91 in 10.0 mi Variable 6.9 mph - N/A   Clear
12:54 PM 64.0 °F - 46.0 °F 52% 29.88 in 10.0 mi SSW 9.2 mph - N/A   Clear
1:54 PM 66.0 °F - 43.0 °F 43% 29.86 in 10.0 mi West 10.4 mph - N/A   Clear
2:54 PM 66.0 °F - 44.1 °F 45% 29.85 in 10.0 mi SSW 9.2 mph - N/A   Partly Cloudy
3:54 PM 66.9 °F - 42.1 °F 40% 29.85 in 10.0 mi WSW 6.9 mph - N/A   Partly Cloudy
4:54 PM 64.9 °F - 41.0 °F 42% 29.86 in 10.0 mi SW 5.8 mph - N/A   Clear
5:54 PM 63.0 °F - 42.1 °F 46% 29.87 in 10.0 mi SSW 4.6 mph - N/A   Overcast
6:54 PM 57.9 °F - 41.0 °F 53% 29.92 in 10.0 mi WNW 9.2 mph 19.6 mph N/A   Mostly Cloudy
8:54 PM 55.0 °F - 39.0 °F 55% 29.99 in 10.0 mi Variable 3.5 mph - N/A   Overcast
9:54 PM 52.0 °F - 37.9 °F 59% 30.01 in 10.0 mi Variable 3.5 mph - N/A   Mostly Cloudy
10:54 PM 48.9 °F - 37.0 °F 64% 30.01 in 10.0 mi Variable 4.6 mph - N/A   Clear
11:54 PM 46.9 °F - 34.0 °F 61% 30.01 in 10.0 mi NW 5.8 mph - N/A   Clear